SCP
0 0 0 0 0 0 0 0 0 0 0 0 0 0 0 0 0 0 0 0 0 0 0 0 0 0 0 0 0 0 0 0 0 0 0 0 0 0 0 0 0 0 0
0 0 0 0 0 0 0 0 0 0 0 0 0 0 0 0 0 0 0 0 0 0 0 0 0 0 0 0 0 0 0 0 0 0 0 0 0 0 0 0 0 0 0
0 0 0 0 0 0 0 0 0 0 0 0 0 0 0 0 0 0 0 0 0 0 0 0 0 0 0 0 0 0 0 0 0 0 0 0 0 0 0 0 0 0 0
0 0 0 0 0 0 0 0 0 0 0 0 0 0 0 0 0 0 0 0 0 0 0 0 0 0 0 0 0 0 0 0 0 0 0 0 0 0 0 0 0 0 0
0 0 0 0 0 0 0 0 0 0 0 0 0 0 0 0 0 0 0 0 0 0 0 0 0 0 0 0 0 0 0 0 0 0 0 0 0 0 0 0 0 0 0
0 0 0 0 0 0 0 0 0 0 0 0 0 0 0 0 0 0 0 0 0 0 0 0 0 0 0 0 0 0 0 0 0 0 0 0 0 0 0 0 0 0 0
0 0 0 0 0 0 0 0 0 0 0 0 0 0 0 0 0 0 0 0 0 0 0 0 0 0 0 0 0 0 0 0 0 0 0 0 0 0 0 0 0 0 0
0 0 0 0 0 0 0 0 0 0 0 0 0 0 0 0 0 0 0 0 0 0 0 0 0 0 0 0 0 0 0 0 0 0 0 0 0 0 0 0 0 0 0
0 0 0 0 0 0 0 0 0 0 0 0 0 0 0 0 0 0 0 0 0 0 0 0 0 0 0 0 0 0 0 0 0 0 0 0 0 0 0 0 0 0 0
0 0 0 0 0 0 0 0 0 0 0 0 0 0 0 0 0 0 0 0 0 0 0 0 0 0 0 0 0 0 0 0 0 0 0 0 0 0 0 0 0 0 0
0 0 0 0 0 0 0 0 0 0 0 0 0 0 0 0 0 0 0 0 0 0 0 0 0 0 0 0 0 0 0 0 0 0 0 0 0 0 0 0 0 0 0
0 0 0 0 0 0 0 0 0 0 0 0 0 0 0 0 0 0 0 0 0 0 0 0 0 0 0 0 0 0 0 0 0 0 0 0 0 0 0 0 0 0 0
0 0 0 0 0 0 0 0 0 0 0 0 0 0 0 0 0 0 0 0 0 0 0 0 0 0 0 0 0 0 0 0 0 0 0 0 0 0 0 0 0 0 0
0 0 0 0 0 0 0 0 0 0 0 0 0 0 0 0 0 0 0 0 0 0 0 0 0 0 0 0 0 0 0 0 0 0 0 0 0 0 0 0 0 0 0
0 0 0 0 0 0 0 0 0 0 0 0 0 0 0 0 0 0 0 0 0 0 0 0 0 0 0 0 0 0 0 0 0 0 0 0 0 0 0 0 0 0 0
0 0 0 0 0 0 0 0 0 0 0 0 0 0 0 0 0 0 0 0 0 0 0 0 0 0 0 0 0 0 0 0 0 0 0 0 0 0 0 0 0 0 0
0 0 0 0 0 0 0 0 0 0 0 0 0 0 0 0 0 0 0 0 0 0 0 0 0 0 0 0 0 0 0 0 0 0 0 0 0 0 0 0 0 0 0
0 0 0 0 0 0 0 0 0 0 0 0 0 0 0 0 0 0 0 0 0 0 0 0 0 0 0 0 0 0 0 0 0 0 0 0 0 0 0 0 0 0 0
0 0 0 0 0 0 0 0 0 0 0 0 0 0 0 0 0 0 0 0 0 0 0 0 0 0 0 0 0 0 0 0 0 0 0 0 0 0 0 0 0 0 0
0 0 0 0 0 0 0 0 0 0 0 0 0 0 0 0 0 0 0 0 0 0 0 0 0 0 0 0 0 0 0 0 0 0 0 0 0 0 0 0 0 0 0
0 0 0 0 0 0 0 0 0 0 0 0 0 0 0 0 0 0 0 0 0 0 0 0 0 0 0 0 0 0 0 0 0 0 0 0 0 0 0 0 0 0 0
0 0 0 0 0 0 0 0 0 0 0 0 0 0 0 0 0 0 0 0 0 0 0 0 0 0 0 0 0 0 0 0 0 0 0 0 0 0 0 0 0 0 0
0 0 0 0 0 0 0 0 0 0 0 0 0 0 0 0 0 0 0 0 0 0 0 0 0 0 0 0 0 0 0 0 0 0 0 0 0 0 0 0 0 0 0
0 0 0 0 0 0 0 0 0 0 0 0 0 0 0 0 0 0 0 0 0 0 0 0 0 0 0 0 0 0 0 0 0 0 0 0 0 0 0 0 0 0 0
0 0 0 0 0 0 0 0 0 0 0 0 0 0 0 0 0 0 0 0 0 0 0 0 0 0 0 0 0 0 0 0 0 0 0 0 0 0 0 0 0 0 0
0 0 0 0 0 0 0 0 0 0 0 0 0 0 0 0 0 0 0 0 0 0 0 0 0 0 0 0 0 0 0 0 0 0 0 0 0 0 0 0 0 0 0
Wind_Speed_500mb
42 37 34 32 38 40 37 33 30 26 23 21 19 16 15 14 13 10 8 9 11 17 15 12 11 9 4 3 11 12 7 8 4 4 6 10 16 24 25 21 20 23 34
41 36 34 34 40 40 38 34 30 27 24 22 20 19 17 16 14 14 12 6 8 13 21 19 17 11 6 4 15 10 9 2 6 8 11 16 24 26 24 20 24 31 36
41 36 35 36 41 43 39 36 33 28 25 24 22 20 18 17 15 14 11 9 6 9 13 12 23 16 11 9 14 14 16 12 16 16 14 17 27 25 23 25 30 37 40
42 39 39 39 43 44 42 38 32 27 23 23 20 17 19 20 19 19 19 15 11 9 10 14 18 18 12 12 12 16 21 18 18 21 26 32 27 21 26 28 32 40 36
47 42 43 43 45 47 45 40 33 27 25 22 22 22 22 22 24 23 21 21 17 15 13 14 13 13 13 10 9 12 20 20 23 26 37 31 20 29 26 31 34 33 34
53 48 46 46 47 49 48 45 38 35 27 23 22 25 25 23 31 27 23 23 22 20 17 14 12 14 14 13 13 13 21 27 34 39 35 28 26 28 39 39 32 34 36
59 53 50 48 51 54 53 47 42 38 35 32 27 25 24 27 27 29 27 26 24 24 22 21 18 18 19 16 16 16 21 24 32 36 36 34 36 37 33 31 35 39 34
64 58 54 52 54 54 54 51 51 42 41 42 35 24 18 30 33 33 32 32 30 30 29 28 26 21 19 20 18 24 31 32 38 40 39 39 38 35 32 34 38 36 34
66 61 57 57 56 55 58 57 56 55 45 50 49 25 17 21 29 37 38 38 36 35 34 33 30 27 23 25 24 25 32 38 41 40 39 37 31 31 32 36 37 36 35
72 68 61 61 60 62 62 61 61 62 55 55 55 56 37 18 18 18 36 39 37 38 39 37 37 33 30 28 27 31 32 35 36 36 35 31 30 29 36 36 35 37 36
77 72 68 64 65 66 63 65 67 65 62 59 62 55 54 54 46 24 26 34 43 43 44 44 45 39 36 31 29 31 35 32 30 34 30 28 30 35 32 35 35 35 35
81 76 73 70 68 68 68 70 69 67 67 68 68 66 61 59 59 53 45 49 44 41 44 44 43 40 36 32 32 30 35 32 32 26 27 35 36 31 31 33 35 35 34
87 82 77 75 74 72 72 74 73 75 76 77 74 72 68 65 57 58 51 58 52 48 35 34 40 38 33 32 32 34 30 29 26 31 34 31 30 32 33 35 35 33 33
86 85 86 82 78 78 76 75 80 86 81 92 76 75 73 70 71 67 64 57 39 31 32 32 35 34 33 30 29 25 24 27 32 37 30 29 31 32 34 35 34 33 33
76 76 82 91 82 79 78 81 77 83 84 88 70 80 76 69 73 66 69 47 41 26 32 33 29 29 25 23 21 23 26 30 31 27 28 31 32 35 36 34 34 33 31
66 59 53 51 62 58 53 55 71 65 67 61 60 77 76 56 44 42 33 30 21 26 20 26 25 23 22 22 27 26 24 24 27 30 31 33 34 34 34 34 34 34 34
27 25 44 48 62 69 59 56 55 45 49 42 48 29 27 21 15 13 12 13 15 21 23 24 27 23 24 23 21 20 22 24 28 31 32 33 35 35 35 36 36 35 36
23 19 27 32 32 30 33 33 42 34 36 33 22 20 16 6 3 4 3 3 13 18 20 20 21 22 19 18 20 21 21 26 29 32 33 36 36 37 36 36 38 38 39
34 33 30 33 26 27 28 21 18 18 21 22 18 15 8 11 10 6 7 5 8 13 15 16 16 18 17 16 16 21 24 27 30 33 35 37 37 38 37 39 40 40 42
29 34 30 27 31 25 17 13 11 9 9 5 9 12 18 15 11 11 12 12 15 14 13 11 9 10 10 13 17 20 24 28 33 36 37 36 35 37 39 41 42 44 45
22 19 19 18 17 19 20 16 13 9 6 6 8 16 17 15 11 11 13 13 12 9 6 5 7 9 12 15 18 21 27 32 35 36 32 34 35 40 40 42 44 44 48
25 24 22 21 19 19 17 17 16 16 15 13 15 17 15 12 11 9 7 6 5 4 4 4 7 10 13 17 21 25 31 35 35 37 38 35 39 38 38 42 42 46 50
27 26 27 23 22 24 22 21 22 19 20 18 16 14 13 13 10 8 5 3 3 1 3 6 10 13 16 20 27 30 33 36 38 41 46 41 36 40 40 41 46 51 44
32 32 31 27 24 28 27 23 21 19 17 16 14 13 11 8 6 4 2 1 3 5 8 11 15 19 22 25 29 32 35 39 40 41 43 51 44 38 41 48 49 43 26
24 24 25 24 20 22 21 18 17 14 13 12 10 8 6 4 0 3 4 6 10 11 14 17 21 25 28 30 32 34 37 41 46 46 46 47 42 55 51 44 40 28 50
23 24 21 20 17 16 15 12 11 9 8 6 5 3 3 4 5 8 10 13 15 19 21 24 27 31 32 36 38 40 41 41 45 48 37 43 51 52 42 32 33 58 54
Wind_Direction_500mb
209 210 213 216 208 206 207 208 209 212 215 213 213 211 209 200 198 181 187 156 152 150 147 158 148 175 182 228 175 192 246 187 162 346 337 305 332 334 323 328 332 329 334
212 216 216 215 210 209 211 211 214 216 218 214 210 207 201 194 186 194 176 153 106 164 177 182 186 167 208 202 203 257 209 252 305 340 305 302 328 328 337 325 320 326 336
217 221 222 217 213 212 212 214 213 215 213 210 199 190 186 189 195 192 189 183 185 187 197 188 177 182 198 204 215 232 228 287 296 295 304 305 316 312 319 313 321 329 330
223 225 226 219 214 214 215 213 213 212 204 200 199 209 206 205 203 205 210 220 225 212 188 184 190 184 186 197 218 232 236 266 252 271 297 310 296 296 308 313 316 320 325
230 230 227 219 212 214 216 215 213 208 203 201 204 205 208 210 213 215 222 227 228 221 203 196 203 214 231 249 243 238 225 227 223 271 297 298 280 298 299 304 307 313 319
232 229 223 219 213 215 216 214 211 206 200 204 217 205 209 216 219 217 223 225 226 221 218 215 219 231 235 247 244 246 248 248 250 280 286 285 292 301 304 303 303 306 312
230 228 223 222 218 217 217 215 208 200 202 204 194 202 217 218 218 224 228 228 228 227 228 229 236 247 253 260 248 243 232 241 254 265 277 288 302 302 296 294 299 304 312
229 228 225 224 218 215 213 210 206 203 206 209 206 209 225 226 226 228 228 231 235 236 239 242 248 254 253 251 274 265 247 252 264 273 281 294 297 293 290 297 304 306 310
230 229 228 226 221 218 216 214 209 207 209 211 208 204 207 226 221 229 230 234 238 241 245 251 255 255 263 252 262 262 250 259 264 273 279 286 285 286 297 300 305 304 306
228 227 229 228 224 222 220 218 214 214 214 216 213 218 225 220 201 214 231 233 237 244 247 254 251 250 255 256 260 268 263 264 260 268 273 273 284 292 299 297 298 301 305
228 229 229 228 225 226 226 222 221 221 223 221 221 222 229 236 240 233 240 242 247 249 244 251 246 250 253 255 262 267 268 269 262 272 274 279 289 297 293 293 297 300 298
228 229 229 229 227 227 227 225 226 228 229 228 227 228 232 235 238 239 238 252 247 246 242 252 247 251 255 259 261 260 273 269 278 273 288 295 297 293 293 297 299 296 300
230 230 230 229 227 228 229 230 231 233 232 231 230 232 234 239 245 249 248 243 247 237 235 238 247 245 250 253 254 263 265 271 267 286 284 286 288 295 299 296 294 298 299
238 232 233 231 230 231 234 237 239 241 243 238 230 238 236 245 249 251 255 240 225 222 229 236 234 241 247 248 258 257 264 268 277 278 281 286 290 292 294 294 296 298 301
244 242 240 231 229 234 239 240 256 248 252 246 224 232 238 244 256 245 249 234 226 216 228 231 233 240 244 244 249 264 266 268 277 280 282 290 294 296 295 295 296 298 298
228 215 224 232 222 241 259 262 246 247 253 230 234 232 237 242 230 231 219 214 221 239 240 232 233 234 231 251 260 257 264 272 276 280 288 290 292 291 293 295 296 293 294
213 242 226 229 245 250 257 225 228 235 225 231 220 207 219 219 179 211 207 232 235 238 245 244 231 234 246 251 249 258 264 272 282 288 292 293 293 294 293 291 292 293 294
188 211 239 228 223 213 224 209 199 207 205 187 168 150 136 154 154 198 159 245 270 256 247 246 245 235 233 238 247 261 275 283 287 292 296 297 294 290 290 291 291 289 295
126 124 127 128 132 138 127 121 128 127 145 144 133 128 172 187 205 240 245 208 233 246 240 237 227 217 224 241 264 277 283 288 293 298 299 297 293 289 289 289 287 290 297
113 120 119 119 129 124 110 102 106 88 149 176 154 167 178 162 168 196 210 195 190 193 196 202 221 222 247 259 272 281 293 301 305 304 299 294 290 286 288 288 289 292 299
119 115 112 124 128 121 113 111 112 125 154 197 159 131 131 140 155 162 162 169 167 159 168 195 233 246 261 279 291 306 305 304 304 304 302 297 293 291 289 288 291 292 300
107 110 114 123 133 136 146 153 149 144 143 145 138 143 155 155 163 161 149 146 148 164 200 232 261 282 297 307 308 308 310 313 318 311 303 298 297 294 289 290 290 294 300
103 111 115 116 120 119 116 113 109 115 123 135 142 146 148 158 161 160 166 182 195 240 290 308 301 305 308 311 314 315 317 312 310 310 306 305 300 295 291 291 295 298 298
106 108 110 111 109 111 112 118 124 130 133 140 144 151 156 156 158 165 182 259 308 305 307 309 311 313 314 317 318 316 315 313 313 311 308 304 309 299 294 298 299 297 285
102 106 110 113 117 119 120 122 121 124 130 139 148 157 158 173 327 341 319 316 308 307 308 311 314 316 319 316 318 316 315 317 315 314 311 301 306 307 304 304 299 287 308
99 101 103 106 108 115 115 119 125 133 136 145 165 203 244 285 296 305 307 305 305 309 313 315 316 318 321 320 319 320 319 315 311 315 311 303 307 312 316 315 302 305 308
Wind_Speed_850mb
42 37 34 32 38 40 37 33 30 26 23 21 19 16 15 14 13 10 8 9 11 17 15 12 11 9 4 3 11 12 7 8 4 4 6 10 16 24 25 21 20 23 34
41 36 34 34 40 40 38 34 30 27 24 22 20 19 17 16 14 14 12 6 8 13 21 19 17 11 6 4 15 10 9 2 6 8 11 16 24 26 24 20 24 31 36
41 36 35 36 41 43 39 36 33 28 25 24 22 20 18 17 15 14 11 9 6 9 13 12 23 16 11 9 14 14 16 12 16 16 14 17 27 25 23 25 30 37 40
42 39 39 39 43 44 42 38 32 27 23 23 20 17 19 20 19 19 19 15 11 9 10 14 18 18 12 12 12 16 21 18 18 21 26 32 27 21 26 28 32 40 36
47 42 43 43 45 47 45 40 33 27 25 22 22 22 22 22 24 23 21 21 17 15 13 14 13 13 13 10 9 12 20 20 23 26 37 31 20 29 26 31 34 33 34
53 48 46 46 47 49 48 45 38 35 27 23 22 25 25 23 31 27 23 23 22 20 17 14 12 14 14 13 13 13 21 27 34 39 35 28 26 28 39 39 32 34 36
59 53 50 48 51 54 53 47 42 38 35 32 27 25 24 27 27 29 27 26 24 24 22 21 18 18 19 16 16 16 21 24 32 36 36 34 36 37 33 31 35 39 34
64 58 54 52 54 54 54 51 51 42 41 42 35 24 18 30 33 33 32 32 30 30 29 28 26 21 19 20 18 24 31 32 38 40 39 39 38 35 32 34 38 36 34
66 61 57 57 56 55 58 57 56 55 45 50 49 25 17 21 29 37 38 38 36 35 34 33 30 27 23 25 24 25 32 38 41 40 39 37 31 31 32 36 37 36 35
72 68 61 61 60 62 62 61 61 62 55 55 55 56 37 18 18 18 36 39 37 38 39 37 37 33 30 28 27 31 32 35 36 36 35 31 30 29 36 36 35 37 36
77 72 68 64 65 66 63 65 67 65 62 59 62 55 54 54 46 24 26 34 43 43 44 44 45 39 36 31 29 31 35 32 30 34 30 28 30 35 32 35 35 35 35
81 76 73 70 68 68 68 70 69 67 67 68 68 66 61 59 59 53 45 49 44 41 44 44 43 40 36 32 32 30 35 32 32 26 27 35 36 31 31 33 35 35 34
87 82 77 75 74 72 72 74 73 75 76 77 74 72 68 65 57 58 51 58 52 48 35 34 40 38 33 32 32 34 30 29 26 31 34 31 30 32 33 35 35 33 33
86 85 86 82 78 78 76 75 80 86 81 92 76 75 73 70 71 67 64 57 39 31 32 32 35 34 33 30 29 25 24 27 32 37 30 29 31 32 34 35 34 33 33
76 76 82 91 82 79 78 81 77 83 84 88 70 80 76 69 73 66 69 47 41 26 32 33 29 29 25 23 21 23 26 30 31 27 28 31 32 35 36 34 34 33 31
66 59 53 51 62 58 53 55 71 65 67 61 60 77 76 56 44 42 33 30 21 26 20 26 25 23 22 22 27 26 24 24 27 30 31 33 34 34 34 34 34 34 34
27 25 44 48 62 69 59 56 55 45 49 42 48 29 27 21 15 13 12 13 15 21 23 24 27 23 24 23 21 20 22 24 28 31 32 33 35 35 35 36 36 35 36
23 19 27 32 32 30 33 33 42 34 36 33 22 20 16 6 3 4 3 3 13 18 20 20 21 22 19 18 20 21 21 26 29 32 33 36 36 37 36 36 38 38 39
34 33 30 33 26 27 28 21 18 18 21 22 18 15 8 11 10 6 7 5 8 13 15 16 16 18 17 16 16 21 24 27 30 33 35 37 37 38 37 39 40 40 42
29 34 30 27 31 25 17 13 11 9 9 5 9 12 18 15 11 11 12 12 15 14 13 11 9 10 10 13 17 20 24 28 33 36 37 36 35 37 39 41 42 44 45
22 19 19 18 17 19 20 16 13 9 6 6 8 16 17 15 11 11 13 13 12 9 6 5 7 9 12 15 18 21 27 32 35 36 32 34 35 40 40 42 44 44 48
25 24 22 21 19 19 17 17 16 16 15 13 15 17 15 12 11 9 7 6 5 4 4 4 7 10 13 17 21 25 31 35 35 37 38 35 39 38 38 42 42 46 50
27 26 27 23 22 24 22 21 22 19 20 18 16 14 13 13 10 8 5 3 3 1 3 6 10 13 16 20 27 30 33 36 38 41 46 41 36 40 40 41 46 51 44
32 32 31 27 24 28 27 23 21 19 17 16 14 13 11 8 6 4 2 1 3 5 8 11 15 19 22 25 29 32 35 39 40 41 43 51 44 38 41 48 49 43 26
24 24 25 24 20 22 21 18 17 14 13 12 10 8 6 4 0 3 4 6 10 11 14 17 21 25 28 30 32 34 37 41 46 46 46 47 42 55 51 44 40 28 50
23 24 21 20 17 16 15 12 11 9 8 6 5 3 3 4 5 8 10 13 15 19 21 24 27 31 32 36 38 40 41 41 45 48 37 43 51 52 42 32 33 58 54
Wind_Direction_850mb
209 210 213 216 208 206 207 208 209 212 215 213 213 211 209 200 198 181 187 156 152 150 147 158 148 175 182 228 175 192 246 187 162 346 337 305 332 334 323 328 332 329 334
212 216 216 215 210 209 211 211 214 216 218 214 210 207 201 194 186 194 176 153 106 164 177 182 186 167 208 202 203 257 209 252 305 340 305 302 328 328 337 325 320 326 336
217 221 222 217 213 212 212 214 213 215 213 210 199 190 186 189 195 192 189 183 185 187 197 188 177 182 198 204 215 232 228 287 296 295 304 305 316 312 319 313 321 329 330
223 225 226 219 214 214 215 213 213 212 204 200 199 209 206 205 203 205 210 220 225 212 188 184 190 184 186 197 218 232 236 266 252 271 297 310 296 296 308 313 316 320 325
230 230 227 219 212 214 216 215 213 208 203 201 204 205 208 210 213 215 222 227 228 221 203 196 203 214 231 249 243 238 225 227 223 271 297 298 280 298 299 304 307 313 319
232 229 223 219 213 215 216 214 211 206 200 204 217 205 209 216 219 217 223 225 226 221 218 215 219 231 235 247 244 246 248 248 250 280 286 285 292 301 304 303 303 306 312
230 228 223 222 218 217 217 215 208 200 202 204 194 202 217 218 218 224 228 228 228 227 228 229 236 247 253 260 248 243 232 241 254 265 277 288 302 302 296 294 299 304 312
229 228 225 224 218 215 213 210 206 203 206 209 206 209 225 226 226 228 228 231 235 236 239 242 248 254 253 251 274 265 247 252 264 273 281 294 297 293 290 297 304 306 310
230 229 228 226 221 218 216 214 209 207 209 211 208 204 207 226 221 229 230 234 238 241 245 251 255 255 263 252 262 262 250 259 264 273 279 286 285 286 297 300 305 304 306
228 227 229 228 224 222 220 218 214 214 214 216 213 218 225 220 201 214 231 233 237 244 247 254 251 250 255 256 260 268 263 264 260 268 273 273 284 292 299 297 298 301 305
228 229 229 228 225 226 226 222 221 221 223 221 221 222 229 236 240 233 240 242 247 249 244 251 246 250 253 255 262 267 268 269 262 272 274 279 289 297 293 293 297 300 298
228 229 229 229 227 227 227 225 226 228 229 228 227 228 232 235 238 239 238 252 247 246 242 252 247 251 255 259 261 260 273 269 278 273 288 295 297 293 293 297 299 296 300
230 230 230 229 227 228 229 230 231 233 232 231 230 232 234 239 245 249 248 243 247 237 235 238 247 245 250 253 254 263 265 271 267 286 284 286 288 295 299 296 294 298 299
238 232 233 231 230 231 234 237 239 241 243 238 230 238 236 245 249 251 255 240 225 222 229 236 234 241 247 248 258 257 264 268 277 278 281 286 290 292 294 294 296 298 301
244 242 240 231 229 234 239 240 256 248 252 246 224 232 238 244 256 245 249 234 226 216 228 231 233 240 244 244 249 264 266 268 277 280 282 290 294 296 295 295 296 298 298
228 215 224 232 222 241 259 262 246 247 253 230 234 232 237 242 230 231 219 214 221 239 240 232 233 234 231 251 260 257 264 272 276 280 288 290 292 291 293 295 296 293 294
213 242 226 229 245 250 257 225 228 235 225 231 220 207 219 219 179 211 207 232 235 238 245 244 231 234 246 251 249 258 264 272 282 288 292 293 293 294 293 291 292 293 294
188 211 239 228 223 213 224 209 199 207 205 187 168 150 136 154 154 198 159 245 270 256 247 246 245 235 233 238 247 261 275 283 287 292 296 297 294 290 290 291 291 289 295
126 124 127 128 132 138 127 121 128 127 145 144 133 128 172 187 205 240 245 208 233 246 240 237 227 217 224 241 264 277 283 288 293 298 299 297 293 289 289 289 287 290 297
113 120 119 119 129 124 110 102 106 88 149 176 154 167 178 162 168 196 210 195 190 193 196 202 221 222 247 259 272 281 293 301 305 304 299 294 290 286 288 288 289 292 299
119 115 112 124 128 121 113 111 112 125 154 197 159 131 131 140 155 162 162 169 167 159 168 195 233 246 261 279 291 306 305 304 304 304 302 297 293 291 289 288 291 292 300
107 110 114 123 133 136 146 153 149 144 143 145 138 143 155 155 163 161 149 146 148 164 200 232 261 282 297 307 308 308 310 313 318 311 303 298 297 294 289 290 290 294 300
103 111 115 116 120 119 116 113 109 115 123 135 142 146 148 158 161 160 166 182 195 240 290 308 301 305 308 311 314 315 317 312 310 310 306 305 300 295 291 291 295 298 298
106 108 110 111 109 111 112 118 124 130 133 140 144 151 156 156 158 165 182 259 308 305 307 309 311 313 314 317 318 316 315 313 313 311 308 304 309 299 294 298 299 297 285
102 106 110 113 117 119 120 122 121 124 130 139 148 157 158 173 327 341 319 316 308 307 308 311 314 316 319 316 318 316 315 317 315 314 311 301 306 307 304 304 299 287 308
99 101 103 106 108 115 115 119 125 133 136 145 165 203 244 285 296 305 307 305 305 309 313 315 316 318 321 320 319 320 319 315 311 315 311 303 307 312 316 315 302 305 308